sat.trackr.live / text

‹ back to catalog

KUIPER-00357

NORAD 68866 · 2026-095C

PAYLOAD ACTIVE UNKNOWN

§ Identity

Operator
Country
US
Launch date
2026-04-28
Launch site
AFETR
Launch vehicle
Mass (kg)
RCS (m²)

External: N2YO · Heavens-Above · Gunter

§ Orbital elements

Epoch: 2026-05-24T23:58:11.563680Z

Period
93.60 min
Inclination
51.8836°
Eccentricity
0.0003361
Mean motion
15.38411050 rev/d
Perigee alt
448.5 km
Apogee alt
453.1 km
Semi-major
6,828.9 km
B*
9.5753e-4
RAAN
354.3818°
Arg perigee
194.3992°
Mean anomaly
165.6900°
Rev number
416

§ Raw data

KUIPER-003571 68866U 26095C   26144.99874495  .00036635  00000+0  95753-3 0  99922 68866  51.8836 354.3818 0003361 194.3992 165.6900 15.38411050  4165

JSON: /api/v1/satellites/68866 · /tle

For live sub-satellite position, see the globe view (requires WebGL).

§ Visibility from observer

Set your observer location to see the next 7 days of passes ≥ 10°. The values pass through the URL so the page stays shareable.

No JS? Fill the form by hand. The geolocation button needs JavaScript.